Regional Weather Roundup
Issued by NWS

Home | Current Version | Previous Version | Graphics & Text | Print | Product List | Glossary On
Versions: 1 2 3 4 5 6 7 8 9 10 11 12 13 14 15 16 17 18 19 20 21 22 23 24 25 26 27 28 29 30 31 32 33 34 35 36 37 38 39 40 41 42 43 44 45 46 47 48 49 50
000
ASUS43 KMKX 270411
RWRWI

WISCONSIN REGIONAL WEATHER ROUNDUP
NATIONAL WEATHER SERVICE MILWAUKEE/SULLIVAN WI
1100 PM CDT THU MAY 26 2016

NOTE: "FAIR" INDICATES FEW OR NO CLOUDS BELOW 12,000 FEET WITH NO
SIGNIFICANT WEATHER AND/OR OBSTRUCTIONS TO VISIBILITY.

WIZ001-002-006>008-014>016-023>028-270500-
NORTHWEST WISCONSIN

CITY           SKY/WX    TMP DP  RH WIND       PRES   REMARKS
SUPERIOR ARPT  FOG       46  46 100 CALM      29.84S VSB 1/2
ASHLAND        FOG       51  51 100 CALM      29.84S VSB 1/4
HAYWARD        CLOUDY    58  53  84 CALM      29.83F
SIREN          CLOUDY    59  53  79 CALM      29.83F
CUMBERLAND     CLOUDY    63  54  72 CALM      29.84F
RICE LAKE      CLOUDY    64  58  82 CALM      29.85F
CHETEK         CLOUDY    62  56  81 CALM      29.85S
LADYSMITH      CLOUDY    62  56  81 CALM      29.86F
EAU CLAIRE     CLOUDY    64  56  75 CALM      29.84S
MENOMONIE      CLOUDY    66  54  63 CALM      29.85R
NEW RICHMOND   CLOUDY    63  53  70 CALM      29.83S
OSCEOLA        CLOUDY    64  58  81 CALM      29.85R
$$

WIZ003>005-009-010-017-018-270500-
NORTH CENTRAL WISCONSIN

CITY           SKY/WX    TMP DP  RH WIND       PRES   REMARKS
MANITOWISH WTR NOT AVBL
ARBOR VITAE    CLOUDY    62  59  91 CALM      29.87R
WOODRUFF       CLOUDY    62  59  91 CALM      29.87R
RHINELANDER    MOCLDY    61  56  83 CALM      29.88F
EAGLE RIVER      N/A     61  59  93 CALM      29.88R
LAND O LAKES   PTCLDY    60  59  98 CALM      29.88R
PHILLIPS       CLOUDY    63  58  82 CALM      29.86R
TOMAHAWK       PTCLDY    59  57  92 CALM      29.88S
MEDFORD        PTCLDY    67  55  66 SW5       29.87F
MERRILL        PTCLDY    60  60 100 CALM      29.88S FOG
$$

WIZ029-030-035-036-043>047-270500-
CENTRAL WISCONSIN

CITY           SKY/WX    TMP DP  RH WIND       PRES   REMARKS
WAUSAU         CLEAR     65  60  84 SE3       29.86S
MOSINEE        CLOUDY    61  61 100 CALM      29.89F
MARSHFIELD     CLOUDY    64  57  78 CALM      29.86F
STEVENS POINT  PTCLDY    59  57  94 CALM      29.88F
WAUPACA        PTCLDY    65  64  98 CALM      29.88S
WAUTOMA        CLOUDY    63  61  93 CALM      29.86F
WISC RAPIDS    MOCLDY    62  58  86 E3        29.87F
CAMP DOUGLAS   CLOUDY    61  61 100 N1        29.84F
$$

WIZ011>013-019>022-031-037>040-048>050-270500-
NORTHEAST WISCONSIN

CITY           SKY/WX    TMP DP  RH WIND       PRES   REMARKS
ANTIGO         CLEAR     59  56  92 CALM      29.90S
SHAWANO        CLEAR     63  59  86 CALM      29.88S
OCONTO         PTCLDY   N/A N/A N/A CALM      29.87S
STURGEON BAY   NOT AVBL
GREEN BAY      CLEAR     63  60  90 CALM      29.87F
MANITOWOC      CLOUDY    60  56  86 CALM      29.89S
APPLETON       MOCLDY    66  54  63 CALM      29.87S
CLINTONVILLE   CLEAR     63  59  88 CALM      29.87S
OSHKOSH        CLOUDY    63  58  83 CALM      29.87S
$$

WIZ032>034-041-042-053>061-270500-
SOUTHWEST WISCONSIN

CITY           SKY/WX    TMP DP  RH WIND       PRES   REMARKS
LA CROSSE      CLOUDY    68  61  78 E3        29.84S
SPARTA         CLOUDY    63  60  90 CALM      29.86F
VIROQUA        CLOUDY    66  61  84 CALM      29.88S
BOSCOBEL       MOCLDY    66  63  90 CALM      29.86F
PRAIRIE DU CHI CLOUDY    67  64  87 CALM      29.86R
PLATTEVILLE    MOCLDY    70  57  64 SE6       29.88S
$$

WIZ056-057-062-063-064-067-068-270500-
SOUTH CENTRAL WISCONSIN

CITY           SKY/WX    TMP DP  RH WIND       PRES   REMARKS
REEDSBURG      CLOUDY    64  62  95 CALM      29.86F
BARABOO/DELLS  CLOUDY    63  59  86 S7        29.87S
LONE ROCK      MOCLDY    66  60  81 E5        29.87S
MINERAL POINT  CLOUDY    70  55  60 E3        29.89S
MADISON        CLOUDY    65  58  78 CALM      29.86F
MIDDLETON      CLOUDY    64  58  81 CALM      29.88S
WATERTOWN      CLOUDY    64  61  91 NE3       29.87F
MONROE         PTCLDY    72  54  53 CALM      29.89R
JANESVILLE     CLOUDY    66  61  82 CALM      29.88R
$$

WIZ051-052-058>065-066-070>072-270500-
SOUTHEAST WISCONSIN

CITY           SKY/WX    TMP DP  RH WIND       PRES   REMARKS
MILWAUKEE      CLOUDY    72  61  68 CALM      29.88F
WAUKESHA       CLOUDY    64  55  72 CALM      29.89F
MILWAUKEE/TIMM CLOUDY    68  55  64 CALM      29.88F
RACINE         CLOUDY    69  60  73 CALM      29.90F
BURLINGTON     CLOUDY    63  60  90 CALM      29.88F
KENOSHA        CLOUDY    67  63  87 E3        29.88F
FOND DU LAC    CLOUDY    64  59  83 CALM      29.87F
SHEBOYGAN      CLOUDY    61  58  90 CALM      29.88F
WEST BEND      CLOUDY    63  59  88 CALM      29.88F
JUNEAU         CLOUDY    66  59  77 E6        29.89F
$$

LSZ147-162-270500-
LAKE SUPERIOR

STATION/POSITION TIME  TEMP    WIND        PRES    WAVE
                       AIR SEA DIR/SP/G            HT/PER
                 (UTC) (F)     (DEG/KT/KT) (MB)    (FT/S)
W MID LAKE BUOY  0350   40 38   50/  2/  4 1010.7F   1/ 5
DEVILS ISLAND    0400   45        CALM     1011.0S
SAXON HARBOR     0340   49     190/  1/  2 1009.8F
$$

LMZ867-665-643>646-270500-
LAKE MICHIGAN

STATION/POSITION TIME  TEMP    WIND        PRES    WAVE
                       AIR SEA DIR/SP/G            HT/PER
                 (UTC) (F)     (DEG/KT/KT) (MB)    (FT/S)
CHAMBERS ISLAND  0300   60     130/  3/  6 1011.9S
N MID LAKE BUOY  0350   48 45  170/  4/  6 1012.0R   2/ 5
NORTHPORT PIER   0300   60     190/  4/  6 1011.9R
SISTER BAY       0305   60     150/  7/  9   N/A
ALGOMA LAKESHORE 0317             CALM       N/A
KEWAUNEE LAKESHO 0300                      1011.4R
SHEBOYGAN LAKESH 0400   62     210/  2/  3 1012.1F
PORT WASHINGTON  0300   60      CALM  /  1 1012.5S
S MID LAKE BUOY  0350   57 50  150/  8/  8 1011.7F   0
KENOSHA   LAKESH 0400   64     180/ 11/ 12 1011.5F
$$

TC  - TEMPERATURE IN CELSIUS
VSB - VISIBILITY IN STATUTE MILES
WCI - WIND CHILL INDEX
HX  - HEAT INDEX





USA.gov is the U.S. government's official web portal to all federal, state and local government web resources and services.